This is the latest recevied weather packets stored in our database for station/object OK2ZAW-23. If no packets are shown the sender has not sent any weather packets the latest 10 day(s).
| Time | Temp. | Humidity | Pressure | Rain* | Wind** | Luminosity | Snow |
|---|---|---|---|---|---|---|---|
| 1777560283 | 17.78° C | 21% | 1024.9 hPa | - | - | 335 W/m² | - |
| 1777559655 | 16.67° C | 22% | 1024.9 hPa | - | - | 335 W/m² | - |
| 1777558086 | 16.67° C | 23% | 1025.1 hPa | - | - | 336 W/m² | - |
| 1777557459 | 16.11° C | 23% | 1025.2 hPa | - | - | 335 W/m² | - |
| 1777556516 | 16.11° C | 24% | 1025.3 hPa | - | - | 335 W/m² | - |
| 1777555889 | 14.44° C | 25% | 1025.6 hPa | - | - | 335 W/m² | - |
| 1777554636 | 12.78° C | 27% | 1025.7 hPa | - | - | 335 W/m² | - |
| 1777554321 | 12.22° C | 28% | 1025.9 hPa | - | - | 335 W/m² | - |
| 1777554008 | 12.22° C | 29% | 1025.8 hPa | - | - | 335 W/m² | - |
| 1777553695 | 11.67° C | 29% | 1025.9 hPa | - | - | 335 W/m² | - |
| 1777553381 | 11.67° C | 29% | 1025.9 hPa | - | - | 335 W/m² | - |
| 1777552754 | 11.67° C | 30% | 1026.1 hPa | - | - | 335 W/m² | - |
| 1777552441 | 11.11° C | 29% | 1026.2 hPa | - | - | 335 W/m² | - |
| 1777552128 | 11.11° C | 30% | 1026.2 hPa | - | - | 335 W/m² | - |
| 1777551188 | 10.56° C | 31% | 1026.3 hPa | - | - | 335 W/m² | - |
| 1777550561 | 10.56° C | 32% | 1026.4 hPa | - | - | 335 W/m² | - |
| 1777549934 | 10° C | 32% | 1026.3 hPa | - | - | 335 W/m² | - |
| 1777548995 | 9.44° C | 31% | 1026.5 hPa | - | - | 335 W/m² | - |
| 1777548368 | 9.44° C | 31% | 1026.6 hPa | - | - | 335 W/m² | - |
| 1777547741 | 10° C | 32% | 1026.6 hPa | - | - | 335 W/m² | - |
| 1777546801 | 9.44° C | 31% | 1026.7 hPa | - | - | 335 W/m² | - |
| 1777546175 | 9.44° C | 33% | 1026.8 hPa | - | - | 335 W/m² | - |
| 1777545235 | 8.89° C | 32% | 1027 hPa | - | - | 335 W/m² | - |
| 1777544922 | 8.89° C | 32% | 1027 hPa | - | - | 335 W/m² | - |
| 1777543983 | 9.44° C | 32% | 1027.2 hPa | - | - | 335 W/m² | - |
* Rain since midnight (hover to see other rain measurements)
** Current wind speed in m/s (hover to see current wind gust speed)